| time (UTC) | temp F | wind direction | speed knots | gust knots | rain 1hr in | rain 24hr in | rain mn in | humidity % | barometer mb |
| 20260504050421 | 59 | 194 | 0.0 | 1.7 | 0.00 | 0.01 | 0.01 | 67 | 1005.7 |
| 20260504045420 | 58 | 219 | 0.0 | 1.7 | 0.00 | 0.01 | 0.01 | 67 | 1005.7 |
| 20260504044922 | 59 | 219 | 0.0 | 1.7 | 0.00 | 0.01 | 0.01 | 67 | 1005.7 |
| 20260504044421 | 58 | 219 | 0.0 | 1.7 | 0.00 | 0.01 | 0.01 | 67 | 1005.7 |
| 20260504043921 | 58 | 219 | 0.0 | 1.7 | 0.00 | 0.01 | 0.01 | 67 | 1005.7 |
| 20260504043422 | 58 | 208 | 0.0 | 2.6 | 0.00 | 0.01 | 0.01 | 67 | 1005.8 |
| 20260504042921 | 58 | 208 | 0.0 | 2.6 | 0.00 | 0.01 | 0.01 | 67 | 1005.8 |
| 20260504042421 | 58 | 193 | 0.9 | 5.2 | 0.00 | 0.01 | 0.01 | 68 | 1005.8 |
| 20260504041921 | 58 | 260 | 1.7 | 5.2 | 0.00 | 0.01 | 0.01 | 68 | 1005.8 |
| 20260504041422 | 58 | 213 | 0.0 | 2.6 | 0.00 | 0.01 | 0.01 | 68 | 1005.8 |
| 20260504040920 | 58 | 215 | 0.9 | 2.6 | 0.00 | 0.01 | 0.01 | 68 | 1005.9 |
| 20260504035921 | 59 | 214 | 0.9 | 4.3 | 0.00 | 0.01 | 0.01 | 67 | 1006.0 |
| 20260504035420 | 59 | 219 | 1.7 | 4.3 | 0.00 | 0.01 | 0.01 | 67 | 1006.0 |
| 20260504034922 | 59 | 222 | 0.9 | 4.3 | 0.00 | 0.01 | 0.01 | 66 | 1006.0 |
| 20260504034421 | 59 | 234 | 0.9 | 4.3 | 0.00 | 0.01 | 0.01 | 66 | 1006.0 |
| 20260504033920 | 60 | 220 | 1.7 | 4.3 | 0.00 | 0.01 | 0.01 | 65 | 1006.1 |
| 20260504033421 | 60 | 232 | 0.9 | 4.3 | 0.00 | 0.01 | 0.01 | 65 | 1006.1 |
| 20260504032921 | 60 | 214 | 0.9 | 4.3 | 0.00 | 0.01 | 0.01 | 65 | 1006.2 |
| 20260504032421 | 60 | 203 | 0.9 | 4.3 | 0.00 | 0.01 | 0.01 | 65 | 1006.2 |
| 20260504031922 | 60 | 213 | 0.9 | 2.6 | 0.00 | 0.01 | 0.01 | 65 | 1006.2 |
| 20260504031422 | 60 | 229 | 0.0 | 2.6 | 0.00 | 0.01 | 0.01 | 65 | 1006.2 |
| 20260504030921 | 60 | 229 | 0.9 | 2.6 | 0.00 | 0.01 | 0.01 | 65 | 1006.2 |
| 20260504025922 | 59 | 212 | 0.9 | 1.7 | 0.00 | 0.01 | 0.01 | 66 | 1006.3 |
| 20260504024920 | 60 | 203 | 0.0 | 1.7 | 0.00 | 0.01 | 0.01 | 64 | 1006.2 |
| 20260504023920 | 60 | 203 | 0.0 | 2.6 | 0.00 | 0.01 | 0.01 | 63 | 1006.3 |
| 20260504023421 | 60 | 193 | 0.0 | 2.6 | 0.00 | 0.01 | 0.01 | 63 | 1006.2 |
| 20260504022921 | 60 | 221 | 0.0 | 2.6 | 0.00 | 0.01 | 0.01 | 62 | 1006.2 |
| 20260504021921 | 61 | 217 | 0.0 | 2.6 | 0.00 | 0.01 | 0.01 | 61 | 1006.2 |
| 20260504021421 | 61 | 223 | 0.9 | 2.6 | 0.00 | 0.01 | 0.01 | 60 | 1006.1 |
| 20260504020921 | 62 | 263 | 0.9 | 4.3 | 0.00 | 0.01 | 0.01 | 60 | 1006.1 |
| 20260504020421 | 62 | 227 | 0.9 | 4.3 | 0.00 | 0.01 | 0.01 | 60 | 1006.2 |
| 20260504015921 | 62 | 209 | 0.9 | 4.3 | 0.00 | 0.01 | 0.01 | 60 | 1006.1 |
| 20260504015421 | 62 | 209 | 0.9 | 2.6 | 0.00 | 0.01 | 0.01 | 60 | 1006.0 |
| 20260504014921 | 62 | 223 | 0.9 | 2.6 | 0.00 | 0.01 | 0.01 | 59 | 1006.0 |
| 20260504013921 | 62 | 217 | 0.9 | 2.6 | 0.00 | 0.01 | 0.01 | 59 | 1006.0 |
| 20260504013420 | 63 | 203 | 0.9 | 6.1 | 0.00 | 0.01 | 0.01 | 58 | 1005.9 |
| 20260504012920 | 63 | 200 | 0.0 | 6.1 | 0.00 | 0.01 | 0.01 | 58 | 1006.0 |
| 20260504011920 | 63 | 217 | 0.0 | 2.6 | 0.00 | 0.01 | 0.01 | 58 | 1005.9 |
| 20260504011422 | 63 | 218 | 0.0 | 1.7 | 0.00 | 0.01 | 0.01 | 58 | 1005.8 |
| 20260504010921 | 63 | 217 | 0.0 | 2.6 | 0.00 | 0.01 | 0.01 | 57 | 1005.9 |
| 20260504010421 | 64 | 217 | 0.9 | 2.6 | 0.00 | 0.01 | 0.01 | 56 | 1005.8 |
| 20260504005921 | 64 | 217 | 0.0 | 2.6 | 0.00 | 0.01 | 0.01 | 55 | 1005.8 |
| 20260504005420 | 64 | 202 | 0.0 | 4.3 | 0.00 | 0.01 | 0.01 | 55 | 1005.8 |
| 20260504004921 | 65 | 196 | 0.9 | 4.3 | 0.00 | 0.01 | 0.01 | 54 | 1005.8 |
| 20260504004421 | 65 | 207 | 0.9 | 2.6 | 0.00 | 0.01 | 0.01 | 52 | 1005.8 |
| 20260504003921 | 65 | 200 | 0.9 | 5.2 | 0.00 | 0.01 | 0.01 | 51 | 1005.8 |
| 20260504003420 | 66 | 207 | 0.9 | 5.2 | 0.00 | 0.01 | 0.01 | 50 | 1005.7 |
| 20260504002921 | 66 | 209 | 0.9 | 5.2 | 0.00 | 0.01 | 0.01 | 50 | 1005.7 |
| 20260504001921 | 66 | 242 | 0.9 | 5.2 | 0.00 | 0.01 | 0.01 | 51 | 1005.8 |
| 20260504001422 | 66 | 279 | 0.0 | 2.6 | 0.00 | 0.01 | 0.01 | 50 | 1005.9 |
| 20260504000920 | 67 | 197 | 0.9 | 2.6 | 0.00 | 0.01 | 0.01 | 49 | 1005.9 |
| 20260504000423 | 67 | 213 | 0.9 | 7.8 | 0.00 | 0.01 | 0.01 | 48 | 1006.0 |
| 20260503235921 | 67 | 192 | 1.7 | 7.8 | 0.00 | 0.01 | 0.01 | 48 | 1006.0 |
| 20260503235421 | 67 | 239 | 1.7 | 7.0 | 0.00 | 0.01 | 0.01 | 48 | 1006.1 |
| 20260503234421 | 67 | 257 | 0.9 | 6.1 | 0.00 | 0.01 | 0.01 | 48 | 1006.1 |
| 20260503233921 | 67 | 212 | 2.6 | 7.8 | 0.00 | 0.01 | 0.01 | 48 | 1006.1 |
| 20260503233421 | 68 | 279 | 2.6 | 7.8 | 0.00 | 0.01 | 0.01 | 47 | 1006.0 |
| 20260503232922 | 68 | 230 | 1.7 | 7.0 | 0.00 | 0.01 | 0.01 | 47 | 1006.0 |
| 20260503231920 | 68 | 229 | 2.6 | 7.0 | 0.00 | 0.01 | 0.01 | 46 | 1006.1 |
| 20260503231421 | 68 | 235 | 2.6 | 7.0 | 0.00 | 0.01 | 0.01 | 46 | 1006.0 |
| 20260503230921 | 68 | 209 | 1.7 | 7.0 | 0.00 | 0.01 | 0.01 | 45 | 1006.2 |
| 20260503230421 | 68 | 235 | 1.7 | 10.4 | 0.00 | 0.01 | 0.01 | 45 | 1006.2 |
| 20260503225921 | 69 | 256 | 2.6 | 10.4 | 0.00 | 0.01 | 0.01 | 45 | 1006.2 |
| 20260503224422 | 69 | 266 | 1.7 | 7.0 | 0.00 | 0.01 | 0.01 | 44 | 1006.3 |
| 20260503223921 | 68 | 193 | 1.7 | 7.0 | 0.00 | 0.01 | 0.01 | 44 | 1006.3 |
| 20260503223421 | 68 | 220 | 0.9 | 7.8 | 0.00 | 0.01 | 0.01 | 45 | 1006.4 |
| 20260503222922 | 68 | 271 | 0.9 | 7.8 | 0.00 | 0.01 | 0.01 | 44 | 1006.5 |
| 20260503222420 | 68 | 250 | 2.6 | 8.7 | 0.00 | 0.01 | 0.01 | 44 | 1006.5 |
| 20260503221921 | 69 | 265 | 2.6 | 8.7 | 0.00 | 0.01 | 0.01 | 43 | 1006.5 |
| 20260503221421 | 69 | 231 | 1.7 | 7.8 | 0.00 | 0.01 | 0.01 | 43 | 1006.5 |
| 20260503220922 | 69 | 269 | 1.7 | 7.8 | 0.00 | 0.01 | 0.01 | 43 | 1006.4 |
| 20260503220421 | 69 | 252 | 2.6 | 13.0 | 0.00 | 0.01 | 0.01 | 42 | 1006.4 |
| 20260503215920 | 69 | 226 | 3.5 | 13.0 | 0.00 | 0.01 | 0.01 | 43 | 1006.3 |
| 20260503215421 | 69 | 228 | 3.5 | 17.4 | 0.00 | 0.01 | 0.01 | 44 | 1006.3 |
| 20260503214921 | 68 | 236 | 4.3 | 17.4 | 0.00 | 0.01 | 0.01 | 43 | 1006.4 |
| 20260503214420 | 68 | 268 | 2.6 | 11.3 | 0.00 | 0.01 | 0.01 | 43 | 1006.5 |
| 20260503213920 | 68 | 251 | 2.6 | 11.3 | 0.00 | 0.01 | 0.01 | 43 | 1006.5 |
| 20260503213421 | 68 | 228 | 2.6 | 12.2 | 0.00 | 0.01 | 0.01 | 42 | 1006.5 |
| 20260503212921 | 69 | 202 | 2.6 | 12.2 | 0.00 | 0.01 | 0.01 | 42 | 1006.6 |
| 20260503212420 | 69 | 210 | 1.7 | 10.4 | 0.00 | 0.01 | 0.01 | 41 | 1006.6 |
| 20260503211921 | 69 | 261 | 1.7 | 10.4 | 0.00 | 0.01 | 0.01 | 42 | 1006.7 |
| 20260503210921 | 70 | 224 | 2.6 | 8.7 | 0.00 | 0.01 | 0.01 | 40 | 1006.7 |
| 20260503210421 | 70 | 201 | 2.6 | 17.4 | 0.00 | 0.01 | 0.01 | 40 | 1006.8 |
| 20260503205922 | 69 | 191 | 7.8 | 17.4 | 0.00 | 0.01 | 0.01 | 41 | 1006.9 |
| 20260503205421 | 68 | 201 | 5.2 | 13.0 | 0.00 | 0.01 | 0.01 | 41 | 1007.1 |
| 20260503204920 | 68 | 194 | 4.3 | 13.0 | 0.00 | 0.01 | 0.01 | 40 | 1007.2 |
| 20260503204420 | 69 | 224 | 3.5 | 10.4 | 0.00 | 0.01 | 0.01 | 41 | 1007.3 |
| 20260503203421 | 69 | 197 | 3.5 | 13.9 | 0.00 | 0.01 | 0.01 | 43 | 1007.6 |
| 20260503202921 | 68 | 269 | 5.2 | 17.4 | 0.00 | 0.01 | 0.01 | 41 | 1007.7 |
| 20260503202420 | 68 | 209 | 6.1 | 17.4 | 0.00 | 0.01 | 0.01 | 40 | 1007.8 |
| 20260503201922 | 69 | 215 | 6.1 | 14.8 | 0.00 | 0.01 | 0.01 | 41 | 1007.8 |
| 20260503201422 | 69 | 197 | 6.1 | 13.0 | 0.00 | 0.01 | 0.01 | 41 | 1008.0 |
| 20260503200920 | 69 | 187 | 5.2 | 13.0 | 0.00 | 0.01 | 0.01 | 40 | 1008.1 |
| 20260503200421 | 68 | 201 | 4.3 | 13.0 | 0.00 | 0.01 | 0.01 | 41 | 1008.1 |
| 20260503195921 | 68 | 209 | 5.2 | 15.6 | 0.00 | 0.01 | 0.01 | 41 | 1008.2 |
| 20260503195421 | 67 | 205 | 6.1 | 15.6 | 0.00 | 0.01 | 0.01 | 41 | 1008.3 |
| 20260503194920 | 68 | 206 | 7.0 | 15.6 | 0.00 | 0.01 | 0.01 | 39 | 1008.4 |
| 20260503193421 | 67 | 213 | 6.1 | 13.9 | 0.00 | 0.01 | 0.01 | 41 | 1008.7 |
| 20260503192921 | 67 | 184 | 7.0 | 13.9 | 0.00 | 0.01 | 0.01 | 43 | 1008.7 |
| 20260503192422 | 66 | 202 | 5.2 | 15.6 | 0.00 | 0.01 | 0.01 | 43 | 1008.8 |
| 20260503190921 | 68 | 204 | 5.2 | 17.4 | 0.00 | 0.01 | 0.01 | 41 | 1009.0 |
| 20260503190420 | 68 | 196 | 6.1 | 17.4 | 0.00 | 0.01 | 0.01 | 41 | 1008.8 |
| 20260503185920 | 68 | 171 | 5.2 | 13.9 | 0.00 | 0.01 | 0.01 | 42 | 1008.9 |
| 20260503185421 | 66 | 189 | 7.8 | 15.6 | 0.00 | 0.01 | 0.01 | 43 | 1009.0 |
| 20260503184921 | 66 | 188 | 7.8 | 15.6 | 0.00 | 0.01 | 0.01 | 43 | 1009.2 |
| 20260503183921 | 66 | 201 | 9.6 | 18.2 | 0.00 | 0.01 | 0.01 | 42 | 1009.2 |
| 20260503183820 | 66 | 201 | 8.7 | 18.2 | 0.00 | 0.01 | 0.01 | 43 | 1009.4 |
| 20260503183421 | 65 | 206 | 6.1 | 18.2 | 0.00 | 0.01 | 0.01 | 46 | 1009.4 |
| 20260503182921 | 65 | 189 | 6.1 | 18.2 | 0.00 | 0.01 | 0.01 | 48 | 1009.6 |
| 20260503182420 | 64 | 182 | 4.3 | 15.6 | 0.00 | 0.01 | 0.01 | 50 | 1009.7 |
| 20260503181921 | 63 | 200 | 6.1 | 15.6 | 0.00 | 0.01 | 0.01 | 50 | 1009.8 |
| 20260503181421 | 63 | 185 | 5.2 | 12.2 | 0.00 | 0.01 | 0.01 | 54 | 1009.9 |
| 20260503180920 | 62 | 210 | 3.5 | 10.4 | 0.00 | 0.01 | 0.01 | 57 | 1010.1 |
| 20260503175923 | 59 | 189 | 5.2 | 10.4 | 0.00 | 0.01 | 0.01 | 60 | 1010.5 |
| 20260503175420 | 59 | 190 | 2.6 | 8.7 | 0.00 | 0.01 | 0.01 | 66 | 1010.6 |
| 20260503174921 | 58 | 169 | 2.6 | 8.7 | 0.00 | 0.01 | 0.01 | 64 | 1010.8 |
| 20260503174421 | 57 | 221 | 2.6 | 7.0 | 0.00 | 0.01 | 0.01 | 66 | 1011.2 |
| 20260503173920 | 56 | 189 | 1.7 | 4.3 | 0.00 | 0.01 | 0.01 | 66 | 1011.3 |
| 20260503173421 | 56 | 226 | 1.7 | 4.3 | 0.00 | 0.01 | 0.01 | 67 | 1011.5 |
| 20260503172921 | 56 | 181 | 2.6 | 5.2 | 0.00 | 0.01 | 0.01 | 66 | 1011.7 |
| 20260503172421 | 56 | 170 | 1.7 | 7.0 | 0.00 | 0.01 | 0.01 | 66 | 1011.9 |
| 20260503171920 | 56 | 189 | 1.7 | 7.0 | 0.00 | 0.01 | 0.01 | 66 | 1012.0 |
| 20260503171421 | 56 | 194 | 2.6 | 7.0 | 0.00 | 0.01 | 0.01 | 70 | 1012.0 |
| 20260503170920 | 55 | 197 | 1.7 | 6.1 | 0.00 | 0.01 | 0.01 | 70 | 1012.1 |
| 20260503170420 | 54 | 186 | 1.7 | 6.1 | 0.00 | 0.01 | 0.01 | 71 | 1012.3 |
| 20260503150921 | 49 | 191 | 0.9 | 1.7 | 0.00 | 0.00 | 0.00 | 80 | 1014.1 |
| 20260503150421 | 49 | 190 | 0.0 | 0.9 | 0.00 | 0.00 | 0.00 | 80 | 1014.2 |
| 20260503130921 | 51 | 201 | 2.6 | 12.2 | 0.00 | 0.00 | 0.00 | 64 | 1014.6 |
| 20260503130420 | 51 | 229 | 2.6 | 12.2 | 0.00 | 0.00 | 0.00 | 64 | 1014.7 |
| 20260503110420 | 46 | 209 | 2.6 | 6.1 | 0.00 | 0.00 | 0.00 | 66 | 1014.5 |
| 20260503090420 | 45 | 202 | 1.7 | 5.2 | 0.00 | 0.00 | 0.00 | 67 | 1015.2 |
| 20260503081420 | 45 | 173 | 0.9 | 5.2 | 0.00 | 0.00 | 0.00 | 65 | 1015.4 |
| 20260503080919 | 45 | 223 | 1.7 | 5.2 | 0.00 | 0.00 | 0.00 | 65 | 1015.3 |
| 20260503080421 | 46 | 215 | 1.7 | 4.3 | 0.00 | 0.00 | 0.00 | 65 | 1015.3 |
| 20260503072920 | 46 | 203 | 1.7 | 5.2 | 0.00 | 0.00 | 0.00 | 63 | 1015.4 |
| 20260503071920 | 46 | 206 | 1.7 | 6.1 | 0.00 | 0.00 | 0.00 | 63 | 1015.5 |
| 20260503071420 | 46 | 206 | 0.9 | 2.6 | 0.00 | 0.00 | 0.00 | 63 | 1015.5 |
| 20260503070419 | 46 | 220 | 1.7 | 4.3 | 0.00 | 0.00 | 0.00 | 62 | 1015.6 |
| 20260503054420 | 47 | 193 | 1.7 | 7.0 | 0.00 | 0.00 | 0.00 | 57 | 1016.2 |